Location: Chimay
(50.0486°N, 4.3171°E)
Time: 21:49:41
(UTC+00:00)

Cosmos 1184 Rocket - Pass Details

Date: 08 August 2020
Orbit: 406 x 423 km, 81.2° (Epoch: 22 September)

Event Time Altitude Azimuth Distance (km) Brightness Sun altitude
Exits shadow 20:20:49 15° 131° (SE) 1,247 4.5 -9.9°
Maximum altitude 20:22:31 22° 92° (E) 1,003 4.2 -10.1°
Drops below altitude 10° 20:25:06 10° 40° (NE) 1,526 5.6 -10.5°
Sets 20:27:27 0° 24° (NNE) 2,398 6.8 -10.7°
